Radiation Dose at Monitoring Post of Fukushima Daini Nuclear Power Station
Date,Time,MP-1(microSv/h),MP-2(microSv/h),MP-3(microSv/h),MP-4(microSv/h),MP-5(microSv/h),MP-6(microSv/h),MP-7(microSv/h),Wind Direction,Wind Velocity(m/s),Rain
2016/06/09,00:00,0.442,0.261,0.466,0.424,0.382,0.215,0.187,south-southwest,8.3,No
2016/06/09,00:10,0.439,0.260,0.463,0.419,0.384,0.214,0.187,south-southwest,9.2,No
2016/06/09,00:20,0.445,0.260,0.465,0.424,0.384,0.214,0.187,south-southwest,8.4,No
2016/06/09,00:30,0.439,0.262,0.466,0.421,0.381,0.215,0.188,south-southwest,8.3,No
2016/06/09,00:40,0.443,0.261,0.464,0.420,0.384,0.213,0.185,south-southwest,7.4,No
2016/06/09,00:50,0.441,0.261,0.467,0.423,0.379,0.216,0.187,south-southwest,7.2,No
2016/06/09,01:00,0.442,0.259,0.462,0.419,0.385,0.214,0.187,south-southwest,8.8,No
2016/06/09,01:10,0.444,0.263,0.465,0.422,0.382,0.214,0.188,south-southwest,9.2,No
2016/06/09,01:20,0.440,0.259,0.465,0.421,0.383,0.213,0.188,south-southwest,8.5,No
2016/06/09,01:30,0.444,0.260,0.462,0.420,0.384,0.214,0.189,south-southwest,9.1,No
2016/06/09,01:40,0.440,0.261,0.466,0.422,0.383,0.213,0.187,south-southwest,8.4,No
2016/06/09,01:50,0.443,0.261,0.463,0.420,0.383,0.212,0.187,south-southwest,8.0,No
2016/06/09,02:00,0.442,0.261,0.463,0.423,0.382,0.215,0.187,south-southwest,7.4,No
2016/06/09,02:10,0.442,0.260,0.465,0.421,0.384,0.213,0.187,south-southwest,8.1,No
2016/06/09,02:20,0.441,0.261,0.465,0.423,0.381,0.214,0.188,south-southwest,9.3,No
2016/06/09,02:30,0.442,0.261,0.466,0.421,0.384,0.213,0.186,south-southwest,9.0,No
2016/06/09,02:40,0.445,0.261,0.463,0.422,0.382,0.213,0.187,south-southwest,7.9,No
2016/06/09,02:50,0.441,0.260,0.468,0.423,0.382,0.215,0.187,south-southwest,7.7,No
2016/06/09,03:00,0.442,0.262,0.463,0.420,0.383,0.213,0.188,south-southwest,7.9,No
2016/06/09,03:10,0.439,0.259,0.466,0.423,0.382,0.215,0.187,south-southwest,7.0,No
2016/06/09,03:20,0.444,0.261,0.465,0.418,0.384,0.214,0.189,south-southwest,8.1,No
2016/06/09,03:30,0.440,0.259,0.466,0.422,0.382,0.214,0.185,south-southwest,8.3,No
2016/06/09,03:40,0.442,0.262,0.466,0.419,0.385,0.215,0.188,south-southwest,7.8,No
2016/06/09,03:50,0.440,0.262,0.463,0.424,0.380,0.213,0.186,south-southwest,7.0,No
2016/06/09,04:00,0.443,0.261,0.466,0.422,0.385,0.215,0.188,south-southwest,6.5,No
2016/06/09,04:10,0.442,0.261,0.464,0.422,0.383,0.213,0.186,south,6.7,No
2016/06/09,04:20,0.441,0.260,0.465,0.421,0.383,0.214,0.187,south-southwest,7.1,No
2016/06/09,04:30,0.443,0.261,0.464,0.420,0.382,0.213,0.186,south-southwest,7.0,No
2016/06/09,04:40,0.442,0.260,0.463,0.423,0.384,0.214,0.187,south-southwest,7.0,No
2016/06/09,04:50,0.442,0.261,0.466,0.421,0.382,0.214,0.187,south-southwest,7.8,No
2016/06/09,05:00,0.441,0.260,0.464,0.424,0.383,0.213,0.186,south-southwest,9.8,No
2016/06/09,05:10,0.443,0.262,0.467,0.420,0.382,0.214,0.187,south-southwest,9.4,No
2016/06/09,05:20,0.441,0.261,0.463,0.423,0.382,0.215,0.187,south-southwest,8.4,No
2016/06/09,05:30,0.443,0.261,0.468,0.420,0.383,0.214,0.186,south-southwest,7.6,No
2016/06/09,05:40,0.440,0.259,0.463,0.423,0.380,0.213,0.187,south-southwest,7.0,No
2016/06/09,05:50,0.445,0.261,0.467,0.420,0.384,0.215,0.186,south,7.1,No
2016/06/09,06:00,0.440,0.259,0.464,0.419,0.382,0.214,0.188,south,7.0,No
2016/06/09,06:10,0.441,0.262,0.464,0.422,0.382,0.214,0.186,south,6.7,No
2016/06/09,06:20,0.443,0.260,0.466,0.417,0.384,0.214,0.186,south,6.9,No
2016/06/09,06:30,0.440,0.259,0.462,0.422,0.381,0.212,0.187,south,6.7,No
2016/06/09,06:40,0.443,0.261,0.466,0.422,0.384,0.213,0.185,south,7.1,No
2016/06/09,06:50,0.440,0.259,0.464,0.419,0.381,0.213,0.188,south,7.3,No
2016/06/09,07:00,0.442,0.258,0.461,0.424,0.382,0.213,0.187,south,6.9,No
2016/06/09,07:10,0.444,0.261,0.466,0.419,0.384,0.214,0.185,south,6.7,No
2016/06/09,07:20,0.441,0.260,0.464,0.420,0.381,0.212,0.187,south,6.4,No
2016/06/09,07:30,0.444,0.258,0.460,0.423,0.380,0.214,0.187,south,7.5,No
2016/06/09,07:40,0.441,0.261,0.465,0.419,0.385,0.213,0.186,south,7.4,No
2016/06/09,07:50,0.439,0.261,0.465,0.418,0.382,0.213,0.186,south,7.6,No
2016/06/09,08:00,0.443,0.259,0.461,0.423,0.379,0.214,0.187,south,7.1,No
2016/06/09,08:10,0.442,0.258,0.462,0.420,0.381,0.214,0.185,south,7.5,No
2016/06/09,08:20,0.437,0.261,0.467,0.418,0.382,0.213,0.186,south-southwest,8.3,No
2016/06/09,08:30,0.440,0.261,0.465,0.418,0.383,0.213,0.188,south,8.9,No
2016/06/09,08:40,0.443,0.258,0.460,0.422,0.378,0.215,0.186,south-southwest,8.2,No
2016/06/09,08:50,0.438,0.259,0.463,0.420,0.380,0.213,0.186,south-southwest,8.8,No
2016/06/09,09:00,0.442,0.261,0.467,0.417,0.383,0.212,0.187,south-southwest,6.1,No
2016/06/09,09:10,0.444,0.261,0.465,0.418,0.381,0.213,0.187,south-southwest,6.0,No
2016/06/09,09:20,0.440,0.258,0.460,0.424,0.380,0.214,0.186,south,5.9,No
2016/06/09,09:30,0.439,0.258,0.461,0.421,0.378,0.213,0.185,south,7.8,No
2016/06/09,09:40,0.442,0.261,0.466,0.417,0.378,0.213,0.187,south,8.4,No
2016/06/09,09:50,0.443,0.258,0.466,0.418,0.385,0.213,0.187,south,7.8,No
2016/06/09,10:00,0.440,0.257,0.461,0.424,0.385,-,0.186,south-southwest,7.8,No
2016/06/09,10:10,0.442,0.260,0.464,0.422,0.382,-,0.185,south,6.0,No
2016/06/09,10:20,0.442,0.259,0.466,0.419,0.379,-,0.188,south,5.1,No
2016/06/09,10:30,0.439,0.257,0.465,0.422,0.384,-,0.187,south,5.7,No
2016/06/09,10:40,0.441,0.257,0.461,0.423,0.384,-,0.186,south,7.5,No
2016/06/09,10:50,0.443,0.258,0.460,0.421,0.382,-,0.187,south,7.0,No
2016/06/09,11:00,0.440,0.260,0.467,0.417,0.380,-,0.188,south,6.4,No
2016/06/09,11:10,0.441,0.259,0.466,0.418,0.379,-,0.186,south,5.7,Yes
2016/06/09,11:20,0.445,0.258,0.463,0.421,0.378,-,0.185,south-southwest,5.3,Yes
2016/06/09,11:30,0.441,0.260,0.461,0.420,0.384,-,0.187,south,5.0,Yes
2016/06/09,11:40,0.438,0.262,0.465,0.419,0.384,-,0.187,south,4.5,Yes
2016/06/09,11:50,0.445,0.260,0.466,0.421,0.383,-,0.187,south,4.9,Yes
2016/06/09,12:00,0.444,0.260,0.461,0.422,0.379,-,0.188,south-southwest,4.2,Yes
2016/06/09,12:10,0.438,0.261,0.462,0.417,0.381,-,0.187,south,3.3,Yes
2016/06/09,12:20,0.443,0.260,0.464,0.420,0.381,-,0.186,south-southeast,3.7,Yes
2016/06/09,12:30,0.437,0.256,0.452,0.413,0.374,-,0.184,south-southeast,3.1,Yes
2016/06/09,12:40,0.429,0.256,0.452,0.406,0.375,-,0.182,south-southeast,7.1,Yes
2016/06/09,12:50,0.430,0.253,0.449,0.408,0.372,-,0.183,south,5.1,Yes
2016/06/09,13:00,0.428,0.256,0.446,0.404,0.375,-,0.183,southeast,4.6,Yes
2016/06/09,13:10,0.430,0.253,0.448,0.403,0.375,-,0.183,west-southwest,4.7,Yes
2016/06/09,13:20,0.428,0.254,0.444,0.409,0.374,-,0.184,south,7.8,Yes
2016/06/09,13:30,0.430,0.255,0.449,0.403,0.376,-,0.183,south,3.4,Yes
2016/06/09,13:40,0.428,0.253,0.447,0.408,0.373,-,0.185,south,5.3,Yes
2016/06/09,13:50,0.425,0.255,0.445,0.406,0.377,-,0.183,south,6.0,Yes
2016/06/09,14:00,0.429,0.252,0.445,0.403,0.374,-,0.182,south,8.7,Yes
2016/06/09,14:10,0.424,0.252,0.442,0.405,0.372,-,0.181,south,7.8,Yes
2016/06/09,14:20,0.428,0.253,0.445,0.400,0.375,-,0.180,south,9.5,Yes
2016/06/09,14:30,0.426,0.250,0.443,0.404,0.371,-,0.180,south,6.4,Yes
2016/06/09,14:40,0.424,0.252,0.441,0.399,0.374,-,0.177,south-southwest,7.7,Yes
2016/06/09,14:50,0.424,0.250,0.441,0.401,0.371,-,0.179,south-southwest,7.1,Yes
2016/06/09,15:00,0.416,0.248,0.430,0.393,0.367,-,0.176,south,7.8,Yes
2016/06/09,15:10,0.418,0.248,0.435,0.389,0.368,0.199,0.176,south,11.8,Yes
2016/06/09,15:20,0.415,0.247,0.430,0.392,0.364,0.199,0.176,southeast,7.4,Yes
2016/06/09,15:30,0.409,0.244,0.424,0.375,0.362,0.197,0.173,south-southeast,5.5,Yes
2016/06/09,15:40,0.409,0.244,0.427,0.381,0.363,0.198,0.177,south-southwest,4.7,Yes
2016/06/09,15:50,0.410,0.248,0.429,0.386,0.370,0.199,0.176,south-southeast,2.2,Yes
2016/06/09,16:00,0.416,0.248,0.437,0.391,0.370,0.199,0.179,south-southeast,1.0,Yes
2016/06/09,16:10,0.410,0.248,0.437,0.396,0.369,0.199,0.176,-,CALM,Yes
2016/06/09,16:20,0.413,0.248,0.437,0.392,0.373,0.199,0.177,south-southeast,1.0,Yes
2016/06/09,16:30,0.414,0.245,0.436,0.396,0.369,0.199,0.177,south-southwest,1.3,Yes
2016/06/09,16:40,0.410,0.248,0.433,0.393,0.370,0.197,0.175,west,0.8,No
2016/06/09,16:50,0.413,0.247,0.436,0.391,0.372,0.197,0.175,west-southwest,1.0,No
2016/06/09,17:00,0.412,0.245,0.436,0.394,0.368,0.198,0.174,southwest,0.9,No
2016/06/09,17:10,0.410,0.246,0.432,0.392,0.372,0.197,0.173,-,CALM,No
2016/06/09,17:20,0.413,0.246,0.437,0.393,0.369,0.197,0.175,south-southeast,1.8,No
2016/06/09,17:30,0.411,0.243,0.433,0.395,0.368,0.197,0.173,south-southeast,2.1,No
2016/06/09,17:40,0.411,0.245,0.432,0.392,0.372,0.196,0.174,south,1.6,No
2016/06/09,17:50,0.412,0.244,0.439,0.396,0.368,0.197,0.173,south-southeast,0.7,No
2016/06/09,18:00,0.411,0.243,0.433,0.393,0.368,0.198,0.173,south,1.0,No
2016/06/09,18:10,0.413,0.244,0.434,0.392,0.371,0.197,0.173,south-southwest,0.9,No
2016/06/09,18:20,0.411,0.244,0.435,0.394,0.367,0.197,0.173,south-southwest,1.1,No
2016/06/09,18:30,0.411,0.244,0.430,0.390,0.369,0.197,0.172,south-southwest,1.4,No
2016/06/09,18:40,0.414,0.244,0.435,0.395,0.369,0.197,0.173,south-southwest,2.1,No
2016/06/09,18:50,0.410,0.243,0.435,0.396,0.366,0.197,0.172,south,2.2,No
2016/06/09,19:00,0.414,0.246,0.431,0.392,0.370,0.196,0.174,south-southwest,2.2,No
2016/06/09,19:10,0.413,0.244,0.436,0.397,0.369,0.198,0.173,south-southwest,1.6,No
2016/06/09,19:20,0.411,0.244,0.433,0.394,0.368,0.198,0.173,southwest,1.6,No
2016/06/09,19:30,0.414,0.245,0.434,0.394,0.372,0.198,0.173,west-southwest,1.6,No
2016/06/09,19:40,0.411,0.243,0.437,0.395,0.368,0.198,0.173,-,CALM,No
2016/06/09,19:50,0.413,0.245,0.432,0.393,0.373,0.197,0.173,-,CALM,No
2016/06/09,20:00,0.412,0.245,0.435,0.396,0.372,0.199,0.173,northwest,0.6,No
2016/06/09,20:10,0.411,0.244,0.434,0.394,0.369,0.198,0.173,west-northwest,0.7,No
2016/06/09,20:20,0.416,0.246,0.432,0.393,0.373,0.199,0.173,west,0.9,No
2016/06/09,20:30,0.412,0.244,0.436,0.395,0.370,0.199,0.173,west-southwest,1.5,No
2016/06/09,20:40,0.414,0.246,0.433,0.394,0.369,0.198,0.175,west-southwest,0.8,Yes
2016/06/09,20:50,0.415,0.244,0.434,0.393,0.372,0.198,0.172,west,0.9,No
2016/06/09,21:00,0.412,0.245,0.438,0.395,0.369,0.198,0.173,north,1.9,No
2016/06/09,21:10,0.417,0.246,0.431,0.393,0.372,0.200,0.173,northeast,1.9,Yes
2016/06/09,21:20,0.414,0.244,0.437,0.396,0.371,0.199,0.173,north-northeast,1.6,No
2016/06/09,21:30,0.414,0.245,0.435,0.392,0.370,0.199,0.175,north,2.8,No
2016/06/09,21:40,0.415,0.244,0.431,0.393,0.372,0.199,0.172,north,4.2,No
2016/06/09,21:50,0.413,0.243,0.438,0.396,0.369,0.199,0.173,north,5.1,No
2016/06/09,22:00,0.417,0.244,0.433,0.393,0.371,0.199,0.174,north,5.2,No
2016/06/09,22:10,0.413,0.245,0.435,0.397,0.371,0.199,0.173,north,3.9,Yes
2016/06/09,22:20,0.418,0.248,0.437,0.395,0.371,0.201,0.177,north,3.2,Yes
2016/06/09,22:30,0.419,0.249,0.434,0.398,0.374,0.203,0.178,north,3.2,Yes
2016/06/09,22:40,0.418,0.249,0.441,0.399,0.373,0.204,0.180,north-northeast,1.7,Yes
2016/06/09,22:50,0.420,0.251,0.436,0.398,0.375,0.207,0.179,-,CALM,Yes
2016/06/09,23:00,0.417,0.248,0.439,0.403,0.376,0.206,0.181,north,1.3,Yes
2016/06/09,23:10,0.420,0.251,0.439,0.398,0.375,0.207,0.180,east-northeast,0.6,Yes
2016/06/09,23:20,0.417,0.251,0.438,0.399,0.377,0.207,0.182,southwest,8.4,Yes
2016/06/09,23:30,0.420,0.250,0.442,0.400,0.374,0.207,0.182,west,1.6,Yes
2016/06/09,23:40,0.421,0.254,0.438,0.399,0.377,0.209,0.183,west,1.9,Yes
2016/06/09,23:50,0.419,0.252,0.441,0.401,0.377,0.210,0.183,west-northwest,1.2,Yes
